TimeCST,TemperatureF,Dew PointF,Humidity,Sea Level PressureIn,VisibilityMPH,Wind Direction,Wind SpeedMPH,Gust SpeedMPH,PrecipitationIn,Events,Conditions,WindDirDegrees,DateUTC
12:08 AM,33.8,33.8,100,30.08,0.2,Calm,Calm,-,N/A,Fog,Fog,0,2012-11-20 06:08:00
12:27 AM,32.0,30.2,93,30.09,1.0,WNW,6.9,-,N/A,,Mist,290,2012-11-20 06:27:00
12:34 AM,32.0,30.2,93,30.09,1.5,WNW,8.1,-,N/A,,Partly Cloudy,290,2012-11-20 06:34:00
12:53 AM,35.1,34.0,96,30.09,2.0,NW,12.7,-,N/A,,Clear,320,2012-11-20 06:53:00
1:02 AM,39.2,35.6,87,30.09,5.0,NNW,10.4,-,N/A,,Clear,330,2012-11-20 07:02:00
1:53 AM,36.0,33.1,89,30.10,5.0,NNW,8.1,-,N/A,,Clear,330,2012-11-20 07:53:00
2:53 AM,36.0,33.1,89,30.10,5.0,NW,9.2,-,N/A,,Clear,320,2012-11-20 08:53:00
3:53 AM,35.1,33.1,92,30.11,4.0,NW,10.4,-,N/A,,Clear,320,2012-11-20 09:53:00
4:53 AM,34.0,32.0,92,30.14,3.0,NW,9.2,-,N/A,,Clear,320,2012-11-20 10:53:00
5:53 AM,33.1,30.9,92,30.16,3.0,NW,10.4,-,N/A,,Clear,320,2012-11-20 11:53:00
6:36 AM,32.0,30.2,93,30.15,2.5,NNW,8.1,-,N/A,,Clear,330,2012-11-20 12:36:00
6:53 AM,32.0,30.0,92,30.17,2.5,NNW,5.8,-,N/A,,Clear,330,2012-11-20 12:53:00
7:21 AM,30.2,28.4,93,30.16,1.5,NW,4.6,-,N/A,,Clear,320,2012-11-20 13:21:00
7:53 AM,30.9,28.9,92,30.18,1.8,NW,4.6,-,N/A,,Clear,310,2012-11-20 13:53:00
8:45 AM,35.6,33.8,93,30.17,2.0,WNW,5.8,-,N/A,,Clear,290,2012-11-20 14:45:00
8:53 AM,36.0,33.1,89,30.19,2.0,WNW,4.6,-,N/A,,Clear,290,2012-11-20 14:53:00
9:15 AM,37.4,35.6,93,30.18,3.0,WNW,4.6,-,N/A,,Clear,300,2012-11-20 15:15:00
9:53 AM,41.0,36.0,82,30.20,4.0,NW,5.8,-,N/A,,Haze,310,2012-11-20 15:53:00
10:53 AM,46.0,37.9,73,30.20,6.0,WNW,8.1,-,N/A,,Haze,290,2012-11-20 16:53:00
11:53 AM,50.0,39.0,66,30.17,7.0,NW,8.1,-,N/A,,Clear,320,2012-11-20 17:53:00
12:53 PM,53.1,39.0,59,30.16,9.0,NNW,4.6,-,N/A,,Clear,330,2012-11-20 18:53:00
1:53 PM,55.0,39.0,55,30.15,9.0,WNW,5.8,-,N/A,,Clear,300,2012-11-20 19:53:00
2:53 PM,55.9,34.0,44,30.14,10.0,West,4.6,-,N/A,,Clear,270,2012-11-20 20:53:00
3:53 PM,53.1,32.0,45,30.15,10.0,West,4.6,-,N/A,,Clear,270,2012-11-20 21:53:00
4:53 PM,42.8,30.2,61,30.15,10.0,Calm,Calm,-,N/A,,Clear,0,2012-11-20 22:53:00
5:53 PM,36.0,27.0,70,30.17,4.0,SSE,3.5,-,N/A,,Haze,150,2012-11-20 23:53:00
6:53 PM,36.0,28.0,73,30.18,8.0,SSE,4.6,-,N/A,,Clear,160,2012-11-21 00:53:00
7:53 PM,32.0,27.0,82,30.17,8.0,South,9.2,-,N/A,,Clear,180,2012-11-21 01:53:00
8:53 PM,35.1,28.0,76,30.17,8.0,SSW,3.5,-,N/A,,Clear,200,2012-11-21 02:53:00
9:53 PM,33.1,28.0,82,30.17,8.0,South,9.2,-,N/A,,Clear,170,2012-11-21 03:53:00
10:53 PM,34.0,28.9,82,30.14,7.0,South,8.1,-,N/A,,Clear,180,2012-11-21 04:53:00
11:53 PM,32.0,28.9,88,30.14,6.0,South,9.2,-,N/A,,Clear,170,2012-11-21 05:53:00